RYR55RY EGCC-EKCH

Flight info

Callsign RYR55RY
Flight time 1h 28m
Altitude 37000
Route DESIG L603 LAMIX UT29 LIBSO UL975 ERDOW DCT ROPAL DCT LESRA DCT TESPI
Aircraft B738/M-SDE2E3FGHIRWXY/LB1

Departure

Time 2026-04-23 21:31
Airport Manchester Airport (EGCC)

Arrival

Time 2026-04-23 22:59
Airport Copenhagen Kastrup Airport (EKCH)
Time Latitude Longitude Altitude Speed Heading
2026-04-23 20:56 53.36088 -2.26793 247 ft 0 kts 313°
2026-04-23 21:15 53.36087 -2.26792 247 ft 1 kts 313°
2026-04-23 21:15 53.36075 -2.26771 247 ft 3 kts 313°
2026-04-23 21:16 53.36062 -2.26748 247 ft 3 kts 303°
2026-04-23 21:16 53.36054 -2.26719 247 ft 3 kts 270°
2026-04-23 21:16 53.36058 -2.26688 247 ft 2 kts 242°
2026-04-23 21:16 53.36065 -2.26666 247 ft 3 kts 240°
2026-04-23 21:17 53.36072 -2.26646 247 ft 1 kts 240°
2026-04-23 21:20 53.36071 -2.26649 247 ft 1 kts 240°
2026-04-23 21:20 53.36058 -2.26683 247 ft 5 kts 236°
2026-04-23 21:20 53.36031 -2.26738 247 ft 7 kts 229°
2026-04-23 21:20 53.36001 -2.26796 247 ft 6 kts 229°
2026-04-23 21:21 53.35966 -2.26840 247 ft 6 kts 200°
2026-04-23 21:21 53.35923 -2.26831 251 ft 6 kts 175°
2026-04-23 21:21 53.35886 -2.26863 253 ft 6 kts 226°
2026-04-23 21:21 53.35857 -2.26930 253 ft 9 kts 234°
2026-04-23 21:22 53.35820 -2.27024 252 ft 11 kts 239°
2026-04-23 21:22 53.35771 -2.27141 251 ft 12 kts 231°
2026-04-23 21:22 53.35718 -2.27250 252 ft 12 kts 231°
2026-04-23 21:22 53.35666 -2.27359 252 ft 12 kts 231°
2026-04-23 21:23 53.35615 -2.27465 252 ft 12 kts 231°
2026-04-23 21:23 53.35552 -2.27595 247 ft 17 kts 231°
2026-04-23 21:23 53.35480 -2.27745 248 ft 12 kts 234°
2026-04-23 21:23 53.35457 -2.27879 246 ft 13 kts 268°
2026-04-23 21:24 53.35405 -2.28009 241 ft 15 kts 222°
2026-04-23 21:24 53.35317 -2.28147 238 ft 20 kts 224°
2026-04-23 21:24 53.35207 -2.28352 233 ft 25 kts 230°
2026-04-23 21:24 53.35100 -2.28572 233 ft 24 kts 232°
2026-04-23 21:25 53.34997 -2.28772 229 ft 23 kts 226°
2026-04-23 21:25 53.34889 -2.28960 224 ft 23 kts 226°
2026-04-23 21:25 53.34777 -2.29174 218 ft 26 kts 231°
2026-04-23 21:25 53.34687 -2.29324 206 ft 7 kts 203°
2026-04-23 21:26 53.34681 -2.29327 206 ft 0 kts 199°
2026-04-23 21:28 53.34667 -2.29334 206 ft 4 kts 196°
2026-04-23 21:28 53.34641 -2.29344 213 ft 4 kts 188°
2026-04-23 21:28 53.34615 -2.29346 207 ft 4 kts 180°
2026-04-23 21:29 53.34579 -2.29337 217 ft 7 kts 167°
2026-04-23 21:29 53.34535 -2.29271 213 ft 10 kts 112°
2026-04-23 21:29 53.34549 -2.29202 209 ft 0 kts 52°
2026-04-23 21:29 53.34550 -2.29200 209 ft 2 kts 52°
2026-04-23 21:30 53.34613 -2.29070 213 ft 42 kts 50°
2026-04-23 21:30 53.35095 -2.28074 237 ft 123 kts 51°
2026-04-23 21:30 53.35731 -2.26747 329 ft 163 kts 51°
2026-04-23 21:30 53.36220 -2.25781 736 ft 165 kts 49°
2026-04-23 21:31 53.36973 -2.24330 1424 ft 165 kts 53°
2026-04-23 21:31 53.37694 -2.22750 1891 ft 182 kts 52°
2026-04-23 21:31 53.38537 -2.20987 2321 ft 201 kts 52°
2026-04-23 21:31 53.39450 -2.19013 2491 ft 226 kts 54°
2026-04-23 21:32 53.40413 -2.16911 3116 ft 227 kts 53°
2026-04-23 21:32 53.41419 -2.14787 3589 ft 243 kts 52°
2026-04-23 21:32 53.42558 -2.12405 3733 ft 273 kts 52°
2026-04-23 21:32 53.43716 -2.09957 4818 ft 260 kts 53°
2026-04-23 21:33 53.44840 -2.07539 5496 ft 265 kts 53°
2026-04-23 21:33 53.45967 -2.05106 6121 ft 269 kts 52°
2026-04-23 21:33 53.47126 -2.02614 6760 ft 271 kts 52°
2026-04-23 21:33 53.48306 -2.00097 7407 ft 275 kts 52°
2026-04-23 21:34 53.49516 -1.97595 8050 ft 278 kts 51°
2026-04-23 21:34 53.50756 -1.95083 8700 ft 280 kts 50°
2026-04-23 21:34 53.51941 -1.92491 9227 ft 287 kts 59°
2026-04-23 21:34 53.52713 -1.89395 9999 ft 288 kts 78°
2026-04-23 21:35 53.52614 -1.86051 10663 ft 294 kts 105°
2026-04-23 21:35 53.51913 -1.82693 10886 ft 316 kts 110°
2026-04-23 21:35 53.51125 -1.79114 11070 ft 337 kts 110°
2026-04-23 21:35 53.50333 -1.75273 11258 ft 357 kts 108°
2026-04-23 21:36 53.48823 -1.67119 12363 ft 369 kts 107°
2026-04-23 21:36 53.48091 -1.62956 13026 ft 373 kts 106°
2026-04-23 21:36 53.47364 -1.58821 13759 ft 374 kts 106°
2026-04-23 21:37 53.46618 -1.54624 14460 ft 376 kts 107°
2026-04-23 21:37 53.45858 -1.50399 15141 ft 379 kts 107°
2026-04-23 21:37 53.45091 -1.46154 15836 ft 382 kts 107°
2026-04-23 21:37 53.44313 -1.41858 16512 ft 384 kts 106°
2026-04-23 21:38 53.43532 -1.37545 17158 ft 387 kts 106°
2026-04-23 21:38 53.42746 -1.33210 17782 ft 391 kts 106°
2026-04-23 21:38 53.41950 -1.28838 18416 ft 392 kts 107°
2026-04-23 21:38 53.41163 -1.24443 19002 ft 395 kts 106°
2026-04-23 21:39 53.40389 -1.19999 19574 ft 398 kts 106°
2026-04-23 21:39 53.39590 -1.15545 20156 ft 400 kts 107°
2026-04-23 21:39 53.38777 -1.11125 20707 ft 403 kts 107°
2026-04-23 21:39 53.37942 -1.06619 21258 ft 405 kts 107°
2026-04-23 21:40 53.37103 -1.02091 21778 ft 408 kts 107°
2026-04-23 21:40 53.36288 -0.97686 22265 ft 410 kts 107°
2026-04-23 21:40 53.35439 -0.93103 22795 ft 413 kts 108°
2026-04-23 21:40 53.34587 -0.88505 23304 ft 415 kts 108°
2026-04-23 21:41 53.33727 -0.83865 23751 ft 418 kts 108°
2026-04-23 21:41 53.32860 -0.79207 24174 ft 420 kts 108°
2026-04-23 21:41 53.31997 -0.74521 24625 ft 423 kts 106°
2026-04-23 21:41 53.31561 -0.69648 25064 ft 427 kts 91°
2026-04-23 21:42 53.31891 -0.64756 25485 ft 431 kts 78°
2026-04-23 21:42 53.32932 -0.60002 25846 ft 437 kts 66°
2026-04-23 21:42 53.34271 -0.55411 26201 ft 440 kts 65°
2026-04-23 21:42 53.35627 -0.50806 26529 ft 444 kts 66°
2026-04-23 21:43 53.36978 -0.46128 26873 ft 446 kts 66°
2026-04-23 21:43 53.38303 -0.41430 27186 ft 448 kts 67°
2026-04-23 21:43 53.39583 -0.36829 27490 ft 451 kts 67°
2026-04-23 21:43 53.40913 -0.32049 27818 ft 453 kts 67°
2026-04-23 21:44 53.42268 -0.27231 28114 ft 456 kts 67°
2026-04-23 21:44 53.43626 -0.22422 28410 ft 458 kts 67°
2026-04-23 21:44 53.44997 -0.17559 28716 ft 460 kts 67°
2026-04-23 21:44 53.46367 -0.12685 28997 ft 462 kts 67°
2026-04-23 21:45 53.47723 -0.07847 29268 ft 465 kts 67°
2026-04-23 21:45 53.49099 -0.02927 29532 ft 467 kts 68°
2026-04-23 21:45 53.50439 0.01878 29783 ft 467 kts 68°
2026-04-23 21:45 53.51849 0.06828 29886 ft 474 kts 65°
2026-04-23 21:46 53.53624 0.11577 29919 ft 486 kts 55°
2026-04-23 21:46 53.55843 0.15916 30127 ft 491 kts 50°
2026-04-23 21:46 53.58158 0.20128 30466 ft 490 kts 50°
2026-04-23 21:46 53.60479 0.24312 30872 ft 488 kts 50°
2026-04-23 21:47 53.62776 0.28487 31263 ft 485 kts 50°
2026-04-23 21:47 53.65056 0.32684 31605 ft 484 kts 51°
2026-04-23 21:47 53.67317 0.36886 31897 ft 484 kts 51°
2026-04-23 21:47 53.69571 0.41112 32221 ft 484 kts 51°
2026-04-23 21:48 53.71819 0.45343 32569 ft 482 kts 51°
2026-04-23 21:48 53.74056 0.49559 32886 ft 481 kts 51°
2026-04-23 21:48 53.76260 0.53724 33215 ft 481 kts 51°
2026-04-23 21:48 53.78483 0.57924 33562 ft 479 kts 51°
2026-04-23 21:49 53.80734 0.62181 33843 ft 479 kts 51°
2026-04-23 21:49 53.82919 0.66323 34108 ft 479 kts 52°
2026-04-23 21:49 53.85128 0.70529 34434 ft 477 kts 51°
2026-04-23 21:49 53.87342 0.74729 34718 ft 476 kts 51°
2026-04-23 21:50 53.89549 0.78923 34985 ft 475 kts 51°
2026-04-23 21:50 53.91747 0.83121 35226 ft 475 kts 52°
2026-04-23 21:50 53.93785 0.87436 35480 ft 472 kts 57°
2026-04-23 21:50 53.95698 0.91947 35729 ft 470 kts 58°
2026-04-23 21:51 53.97556 0.96515 35951 ft 470 kts 59°
2026-04-23 21:51 53.99336 1.00950 36183 ft 469 kts 59°
2026-04-23 21:51 54.01170 1.05510 36410 ft 468 kts 58°
2026-04-23 21:51 54.03023 1.10087 36534 ft 470 kts 58°
2026-04-23 21:52 54.04889 1.14668 36708 ft 471 kts 58°
2026-04-23 21:52 54.06757 1.19231 37010 ft 467 kts 58°
2026-04-23 21:52 54.08614 1.23751 37297 ft 465 kts 58°
2026-04-23 21:52 54.10467 1.28269 37462 ft 465 kts 58°
2026-04-23 21:53 54.12324 1.32810 37441 ft 467 kts 58°
2026-04-23 21:53 54.16034 1.41896 37459 ft 465 kts 58°
2026-04-23 21:54 54.19686 1.50888 37445 ft 458 kts 58°
2026-04-23 21:54 54.23307 1.59842 37441 ft 457 kts 58°
2026-04-23 21:55 54.26889 1.68734 37434 ft 457 kts 58°
2026-04-23 21:55 54.30499 1.77707 37431 ft 458 kts 58°
2026-04-23 21:56 54.34105 1.86706 37430 ft 459 kts 58°
2026-04-23 21:56 54.37732 1.95788 37431 ft 460 kts 58°
2026-04-23 21:57 54.41257 2.04658 37432 ft 462 kts 58°
2026-04-23 21:57 54.44872 2.13788 37435 ft 462 kts 58°
2026-04-23 21:58 54.48487 2.22939 37433 ft 463 kts 58°
2026-04-23 21:58 54.52102 2.32120 37429 ft 463 kts 58°
2026-04-23 21:59 54.55711 2.41328 37434 ft 463 kts 58°
2026-04-23 21:59 54.59300 2.50538 37427 ft 463 kts 58°
2026-04-23 22:00 54.64593 2.64162 37420 ft 464 kts 58°
2026-04-23 22:00 54.68092 2.73200 37423 ft 464 kts 58°
2026-04-23 22:01 54.71679 2.82496 37421 ft 464 kts 58°
2026-04-23 22:01 54.75251 2.91799 37426 ft 463 kts 58°
2026-04-23 22:02 54.78751 3.00956 37420 ft 463 kts 58°
2026-04-23 22:02 54.82278 3.10220 37426 ft 462 kts 58°
2026-04-23 22:03 54.85822 3.19547 37423 ft 463 kts 58°
2026-04-23 22:03 54.89358 3.28896 37418 ft 463 kts 58°
2026-04-23 22:04 54.92889 3.38262 37412 ft 464 kts 58°
2026-04-23 22:04 54.96270 3.47263 37406 ft 464 kts 58°
2026-04-23 22:05 54.99788 3.56676 37396 ft 464 kts 58°
2026-04-23 22:05 55.03300 3.66108 37401 ft 464 kts 58°
2026-04-23 22:06 55.06821 3.75576 37395 ft 466 kts 58°
2026-04-23 22:06 55.10333 3.85083 37396 ft 466 kts 58°
2026-04-23 22:07 55.13725 3.94371 37394 ft 466 kts 61°
2026-04-23 22:07 55.16354 4.04419 37395 ft 463 kts 69°
2026-04-23 22:08 55.18752 4.14897 37401 ft 463 kts 69°
2026-04-23 22:08 55.21182 4.25356 37400 ft 464 kts 69°
2026-04-23 22:09 55.23631 4.35736 37398 ft 465 kts 69°
2026-04-23 22:09 55.26109 4.46227 37396 ft 465 kts 69°
2026-04-23 22:10 55.28574 4.56719 37390 ft 466 kts 69°
2026-04-23 22:10 55.31034 4.67256 37392 ft 466 kts 69°
2026-04-23 22:11 55.33483 4.77817 37384 ft 467 kts 69°
2026-04-23 22:11 55.35933 4.88393 37378 ft 466 kts 69°
2026-04-23 22:12 55.38346 4.98939 37387 ft 465 kts 71°
2026-04-23 22:12 55.39887 5.09652 37390 ft 462 kts 80°
2026-04-23 22:13 55.41092 5.20796 37380 ft 463 kts 81°
2026-04-23 22:13 55.42293 5.31945 37381 ft 462 kts 80°
2026-04-23 22:14 55.43529 5.43069 37363 ft 463 kts 80°
2026-04-23 22:14 55.44770 5.54154 37364 ft 464 kts 79°
2026-04-23 22:15 55.46021 5.65339 37349 ft 465 kts 79°
2026-04-23 22:15 55.47259 5.76550 37335 ft 467 kts 79°
2026-04-23 22:16 55.48496 5.87819 37333 ft 468 kts 80°
2026-04-23 22:16 55.49513 5.97204 37332 ft 469 kts 80°
2026-04-23 22:17 55.50709 6.08382 37319 ft 469 kts 79°
2026-04-23 22:17 55.51914 6.19712 37303 ft 469 kts 79°
2026-04-23 22:18 55.53102 6.30973 37293 ft 469 kts 79°
2026-04-23 22:18 55.54290 6.42312 37284 ft 469 kts 79°
2026-04-23 22:19 55.55465 6.53625 37283 ft 468 kts 80°
2026-04-23 22:19 55.56623 6.64935 37271 ft 467 kts 79°
2026-04-23 22:20 55.57768 6.76160 37261 ft 466 kts 79°
2026-04-23 22:20 55.58896 6.87455 37268 ft 466 kts 80°
2026-04-23 22:21 55.60017 6.98746 37250 ft 465 kts 79°
2026-04-23 22:21 55.61114 7.09846 37239 ft 465 kts 79°
2026-04-23 22:22 55.62217 7.21098 37234 ft 464 kts 79°
2026-04-23 22:22 55.63306 7.32341 37225 ft 463 kts 79°
2026-04-23 22:23 55.64383 7.43589 37218 ft 463 kts 79°
2026-04-23 22:23 55.65443 7.54771 37212 ft 464 kts 79°
2026-04-23 22:24 55.66499 7.66045 37212 ft 464 kts 79°
2026-04-23 22:24 55.67551 7.77355 37212 ft 465 kts 79°
2026-04-23 22:25 55.68593 7.88695 37213 ft 466 kts 79°
2026-04-23 22:25 55.69622 8.00036 37218 ft 467 kts 79°
2026-04-23 22:26 55.70634 8.11284 37214 ft 467 kts 79°
2026-04-23 22:26 55.71644 8.22624 37200 ft 468 kts 79°
2026-04-23 22:27 55.72654 8.34056 37209 ft 469 kts 79°
2026-04-23 22:27 55.73647 8.45522 37206 ft 469 kts 79°
2026-04-23 22:28 55.74629 8.56924 37213 ft 468 kts 79°
2026-04-23 22:28 55.75601 8.68408 37198 ft 469 kts 79°
2026-04-23 22:29 55.76569 8.79852 37178 ft 466 kts 79°
2026-04-23 22:29 55.77518 8.91244 36943 ft 468 kts 79°
2026-04-23 22:30 55.77991 8.96975 36439 ft 469 kts 79°
2026-04-23 22:30 55.78446 9.02513 35868 ft 467 kts 79°
2026-04-23 22:30 55.78913 9.08221 35230 ft 466 kts 79°
2026-04-23 22:30 55.79378 9.13927 34588 ft 467 kts 79°
2026-04-23 22:31 55.79832 9.19579 33928 ft 468 kts 79°
2026-04-23 22:31 55.80291 9.25330 33237 ft 469 kts 79°
2026-04-23 22:31 55.80749 9.31095 32538 ft 470 kts 79°
2026-04-23 22:31 55.81203 9.36857 31909 ft 469 kts 79°
2026-04-23 22:32 55.81651 9.42571 31420 ft 465 kts 79°
2026-04-23 22:32 55.82089 9.48261 30908 ft 462 kts 79°
2026-04-23 22:32 55.82525 9.53902 30406 ft 459 kts 79°
2026-04-23 22:32 55.82959 9.59507 29907 ft 455 kts 79°
2026-04-23 22:33 55.83385 9.65044 29400 ft 451 kts 79°
2026-04-23 22:33 55.83809 9.70557 28889 ft 446 kts 79°
2026-04-23 22:33 55.84220 9.75938 28388 ft 442 kts 79°
2026-04-23 22:33 55.84627 9.81352 27884 ft 439 kts 79°
2026-04-23 22:34 55.85028 9.86723 27385 ft 435 kts 79°
2026-04-23 22:34 55.85424 9.92041 26888 ft 431 kts 79°
2026-04-23 22:34 55.85813 9.97309 26391 ft 427 kts 79°
2026-04-23 22:34 55.86183 10.02340 25920 ft 424 kts 79°
2026-04-23 22:35 55.86561 10.07520 25436 ft 420 kts 79°
2026-04-23 22:35 55.86935 10.12661 24950 ft 417 kts 79°
2026-04-23 22:35 55.87307 10.17773 24471 ft 414 kts 79°
2026-04-23 22:35 55.87673 10.22827 23991 ft 411 kts 79°
2026-04-23 22:36 55.88031 10.27860 23506 ft 407 kts 79°
2026-04-23 22:36 55.88384 10.32856 23037 ft 405 kts 79°
2026-04-23 22:36 55.88732 10.37806 22564 ft 401 kts 79°
2026-04-23 22:36 55.89081 10.42735 22091 ft 398 kts 79°
2026-04-23 22:37 55.89422 10.47605 21619 ft 395 kts 79°
2026-04-23 22:37 55.89636 10.52472 21136 ft 395 kts 87°
2026-04-23 22:37 55.89377 10.57325 20834 ft 391 kts 98°
2026-04-23 22:37 55.88820 10.61995 20410 ft 389 kts 99°
2026-04-23 22:38 55.88222 10.66680 19965 ft 387 kts 99°
2026-04-23 22:38 55.87628 10.71344 19527 ft 385 kts 99°
2026-04-23 22:38 55.87046 10.75989 19050 ft 383 kts 99°
2026-04-23 22:38 55.86479 10.80613 18604 ft 381 kts 99°
2026-04-23 22:39 55.85919 10.85212 18151 ft 379 kts 99°
2026-04-23 22:39 55.85362 10.89780 17620 ft 378 kts 99°
2026-04-23 22:39 55.84800 10.94334 17220 ft 375 kts 99°
2026-04-23 22:39 55.84175 10.98834 16772 ft 373 kts 101°
2026-04-23 22:40 55.83526 11.03173 16343 ft 371 kts 102°
2026-04-23 22:40 55.82855 11.07595 15894 ft 370 kts 101°
2026-04-23 22:40 55.81539 11.16332 15013 ft 366 kts 101°
2026-04-23 22:41 55.80889 11.20691 14571 ft 364 kts 101°
2026-04-23 22:41 55.80242 11.25024 14132 ft 362 kts 101°
2026-04-23 22:41 55.79600 11.29303 13945 ft 352 kts 101°
2026-04-23 22:41 55.78977 11.33462 13771 ft 343 kts 101°
2026-04-23 22:42 55.78371 11.37499 13616 ft 335 kts 101°
2026-04-23 22:42 55.77774 11.41480 13449 ft 328 kts 101°
2026-04-23 22:42 55.77217 11.45362 13232 ft 321 kts 97°
2026-04-23 22:42 55.76870 11.49241 12907 ft 317 kts 92°
2026-04-23 22:43 55.76604 11.53078 12585 ft 316 kts 92°
2026-04-23 22:43 55.76336 11.56937 12270 ft 314 kts 92°
2026-04-23 22:43 55.76068 11.60624 11951 ft 313 kts 92°
2026-04-23 22:43 55.75784 11.64397 11628 ft 312 kts 93°
2026-04-23 22:44 55.75487 11.68205 11306 ft 311 kts 93°
2026-04-23 22:44 55.75185 11.71994 10979 ft 309 kts 94°
2026-04-23 22:44 55.74879 11.75766 10664 ft 308 kts 94°
2026-04-23 22:44 55.74574 11.79506 10358 ft 305 kts 94°
2026-04-23 22:45 55.74272 11.83189 10217 ft 297 kts 94°
2026-04-23 22:45 55.73982 11.86747 10057 ft 289 kts 94°
2026-04-23 22:45 55.73696 11.90293 9764 ft 288 kts 94°
2026-04-23 22:45 55.73409 11.93793 9495 ft 285 kts 95°
2026-04-23 22:46 55.73123 11.97278 9213 ft 284 kts 95°
2026-04-23 22:46 55.72845 12.00641 8940 ft 282 kts 95°
2026-04-23 22:46 55.72561 12.04076 8671 ft 281 kts 95°
2026-04-23 22:46 55.72274 12.07491 8394 ft 279 kts 95°
2026-04-23 22:47 55.71993 12.10893 8114 ft 278 kts 95°
2026-04-23 22:47 55.71710 12.14267 7829 ft 276 kts 95°
2026-04-23 22:47 55.71431 12.17584 7548 ft 275 kts 95°
2026-04-23 22:47 55.71149 12.20921 7271 ft 274 kts 96°
2026-04-23 22:48 55.70521 12.24095 6956 ft 278 kts 124°
2026-04-23 22:48 55.69167 12.26550 6725 ft 279 kts 139°
2026-04-23 22:48 55.67686 12.28738 6431 ft 277 kts 138°
2026-04-23 22:48 55.66205 12.30936 6152 ft 277 kts 139°
2026-04-23 22:49 55.64735 12.33138 5883 ft 275 kts 138°
2026-04-23 22:49 55.63285 12.35319 5602 ft 272 kts 138°
2026-04-23 22:49 55.61802 12.37316 5313 ft 273 kts 153°
2026-04-23 22:49 55.59978 12.38050 5075 ft 268 kts 185°
2026-04-23 22:50 55.58217 12.37184 4956 ft 262 kts 211°
2026-04-23 22:50 55.56760 12.35281 4838 ft 261 kts 224°
2026-04-23 22:50 55.55393 12.33160 4618 ft 265 kts 224°
2026-04-23 22:50 55.54013 12.31004 4464 ft 264 kts 224°
2026-04-23 22:51 55.52643 12.28881 4305 ft 259 kts 224°
2026-04-23 22:51 55.51300 12.26819 4158 ft 253 kts 224°
2026-04-23 22:51 55.49988 12.24809 4020 ft 246 kts 224°
2026-04-23 22:51 55.48630 12.23040 3851 ft 241 kts 205°
2026-04-23 22:52 55.46993 12.22673 3743 ft 240 kts 171°
2026-04-23 22:52 55.45471 12.23812 3624 ft 235 kts 141°
2026-04-23 22:52 55.44455 12.25906 3512 ft 221 kts 115°
2026-04-23 22:52 55.44007 12.28396 3353 ft 209 kts 95°
2026-04-23 22:53 55.43825 12.30930 3241 ft 208 kts 93°
2026-04-23 22:53 55.43670 12.33457 3113 ft 209 kts 92°
2026-04-23 22:53 55.43765 12.35971 3001 ft 202 kts 61°
2026-04-23 22:53 55.44629 12.37736 3020 ft 186 kts 35°
2026-04-23 22:54 55.45572 12.39206 2996 ft 176 kts 37°
2026-04-23 22:54 55.46480 12.40633 2997 ft 176 kts 37°
2026-04-23 22:54 55.47394 12.42054 2992 ft 174 kts 37°
2026-04-23 22:54 55.48304 12.43466 2865 ft 176 kts 37°
2026-04-23 22:55 55.49207 12.44861 2623 ft 168 kts 37°
2026-04-23 22:55 55.50041 12.46156 2457 ft 157 kts 37°
2026-04-23 22:55 55.50865 12.47429 2215 ft 156 kts 38°
2026-04-23 22:55 55.51644 12.48631 2017 ft 155 kts 38°
2026-04-23 22:56 55.52455 12.49888 1817 ft 154 kts 39°
2026-04-23 22:56 55.53264 12.51145 1614 ft 155 kts 39°
2026-04-23 22:56 55.54081 12.52396 1405 ft 156 kts 36°
2026-04-23 22:56 55.54911 12.53638 1249 ft 156 kts 40°
2026-04-23 22:57 55.55734 12.54960 988 ft 160 kts 42°
2026-04-23 22:57 55.56546 12.56229 794 ft 153 kts 39°
2026-04-23 22:57 55.57348 12.57424 598 ft 153 kts 40°
2026-04-23 22:57 55.58137 12.58670 369 ft 151 kts 40°
2026-04-23 22:58 55.58927 12.59894 153 ft 150 kts 40°
2026-04-23 22:58 55.59696 12.61081 30 ft 139 kts 40°
2026-04-23 22:58 55.60337 12.62074 22 ft 101 kts 41°
2026-04-23 22:58 55.60752 12.62713 28 ft 61 kts 41°
2026-04-23 22:59 55.61064 12.63199 29 ft 50 kts 41°
2026-04-23 22:59 55.61189 12.63327 27 ft 17 kts
2026-04-23 22:59 55.61310 12.63318 27 ft 17 kts 357°
2026-04-23 22:59 55.61420 12.63371 24 ft 17 kts 40°
2026-04-23 23:00 55.61507 12.63503 24 ft 16 kts 44°
2026-04-23 23:00 55.61588 12.63632 24 ft 16 kts 41°
2026-04-23 23:00 55.61668 12.63755 25 ft 15 kts 41°
2026-04-23 23:00 55.61751 12.63883 25 ft 17 kts 41°
2026-04-23 23:01 55.61841 12.64021 27 ft 17 kts 40°
2026-04-23 23:01 55.61925 12.64158 23 ft 16 kts 61°
2026-04-23 23:01 55.61951 12.64349 24 ft 16 kts 81°
2026-04-23 23:01 55.61986 12.64506 24 ft 13 kts 44°
2026-04-23 23:02 55.62056 12.64603 23 ft 13 kts 32°
2026-04-23 23:02 55.62131 12.64679 24 ft 12 kts 29°
2026-04-23 23:02 55.62204 12.64761 26 ft 13 kts 34°
2026-04-23 23:02 55.62246 12.64840 25 ft 13 kts 63°
2026-04-23 23:03 55.62223 12.64988 24 ft 13 kts 121°
2026-04-23 23:03 55.62192 12.65129 25 ft 13 kts 82°
2026-04-23 23:03 55.62260 12.65188 25 ft 12 kts 355°
2026-04-23 23:03 55.62344 12.65194 23 ft 12 kts
2026-04-23 23:04 55.62416 12.65204 23 ft 8 kts 11°
2026-04-23 23:04 55.62442 12.65285 23 ft 8 kts 91°
2026-04-23 23:04 55.62441 12.65383 25 ft 8 kts 89°
2026-04-23 23:04 55.62443 12.65478 23 ft 8 kts 88°
2026-04-23 23:05 55.62444 12.65569 23 ft 7 kts 88°
2026-04-23 23:05 55.62445 12.65658 23 ft 7 kts 89°
2026-04-23 23:05 55.62446 12.65738 23 ft 5 kts 87°
2026-04-23 23:05 55.62476 12.65761 23 ft 5 kts
2026-04-23 23:06 55.62509 12.65760 23 ft 3 kts 359°
2026-04-23 23:06 55.62524 12.65759 23 ft 1 kts 359°